This is the latest recevied weather packets stored in our database for station/object KJ6HT. If no packets are shown the sender has not sent any weather packets the latest 10 day(s).
| Time | Temp. | Humidity | Pressure | Rain* | Wind** | Luminosity | Snow |
|---|---|---|---|---|---|---|---|
| 1778016657 | 19.44° C | 49% | 1013.1 hPa | 0 mm | - | - | - |
| 1778015785 | 20.56° C | 49% | 1013.2 hPa | 0 mm | - | - | - |
| 1778014856 | 20.56° C | 48% | 1013.3 hPa | 0 mm | - | - | - |
| 1778013953 | 20° C | 49% | 1013.2 hPa | 0 mm | - | - | - |
| 1778013073 | 20° C | 49% | 1013.2 hPa | 0 mm | - | - | - |
| 1778012151 | 20° C | 48% | 1013.3 hPa | 0 mm | - | - | - |
| 1778011247 | 19.44° C | 49% | 1013.5 hPa | 0 mm | - | - | - |
| 1778010345 | 20° C | 48% | 1013.5 hPa | 0 mm | - | - | - |
| 1778009443 | 19.44° C | 48% | 1013.7 hPa | 0 mm | - | - | - |
| 1778008546 | 19.44° C | 47% | 1013.8 hPa | 0 mm | - | - | - |
| 1778007643 | 19.44° C | 49% | 1013.8 hPa | 0 mm | - | - | - |
| 1778006746 | 18.89° C | 52% | 1014 hPa | 0 mm | - | - | - |
| 1778005839 | 18.33° C | 56% | 1014 hPa | 0 mm | - | - | - |
| 1778004931 | 17.78° C | 58% | 1014.1 hPa | 0 mm | - | - | - |
| 1778004030 | 17.78° C | 60% | 1014 hPa | 0 mm | - | - | - |
| 1778003126 | 17.22° C | 62% | 1013.9 hPa | 0 mm | - | - | - |
| 1778002224 | 16.67° C | 65% | 1013.7 hPa | 0 mm | - | - | - |
| 1778001322 | 16.67° C | 66% | 1013.7 hPa | 0 mm | - | - | - |
| 1778000423 | 16.11° C | 68% | 1013.6 hPa | 0 mm | - | - | - |
| 1777999518 | 16.11° C | 72% | 1013.5 hPa | 0 mm | - | - | - |
| 1777998614 | 15.56° C | 76% | 1013.5 hPa | 0 mm | - | - | - |
| 1777997710 | 14.44° C | 78% | 1013.4 hPa | 0 mm | - | - | - |
| 1777996808 | 14.44° C | 81% | 1013.3 hPa | 0 mm | - | - | - |
| 1777995913 | 13.89° C | 82% | 1013.2 hPa | 0 mm | - | - | - |
| 1777995007 | 13.89° C | 83% | 1013.1 hPa | 0 mm | - | - | - |
* Rain latest hour (hover to see other rain measurements)
** Current wind speed in m/s (hover to see current wind gust speed)